AirNav   Air Wisconsin pilot careers
 
 285 users online  

AZ15 Lava Falls Heliport
Supai Village, Arizona, USA


FAA INFORMATION EFFECTIVE 09 NOVEMBER 2017

Location

FAA Identifier: AZ15
Lat/Long: 36-11-29.9330N / 113-05-32.7370W
36-11.498883N / 113-05.545617W
36.1916481 / -113.0924269
(estimated)
Elevation: 1720 ft. / 524 m (estimated)
Variation: 14E (1985)
From city: 19 miles W of SUPAI VILLAGE, AZ
Time zone: UTC -7 (year round; does not observe DST)
Zip code: 86434

Heliport Operations

Heliport use: Private use. Permission required prior to landing
Activation date: 06/1979
Control tower: no
ARTCC: LOS ANGELES CENTER
FSS: PRESCOTT FLIGHT SERVICE STATION
Attendance: IREG
Wind indicator: no
Segmented circle: no
Landing fee: yes

Heliport Services

Runway Information

Helipad H1

Dimensions: 30 x 30 ft. / 9 x 9 m
Surface: gravel
Latitude: 36-11.498833N
Longitude: 113-05.545667W
Elevation: 1720.0 ft.
Traffic pattern: leftleft

Heliport Ownership and Management from official FAA records

Ownership: Publicly-owned
Owner: HUALAPAI INDIAN TRIBE
P.O. BOX 179
PEACH SPRINGS, AZ 86434
Phone 602-769-2216
Manager: HUALAPAI INDIAN TRIBE
PO BOX 168
PEACH SPRINGS, AZ 86434
Phone 602-769-2216

Instrument Procedures

There are no published instrument procedures at AZ15.

Some nearby airports with instrument procedures:

KAZC - Colorado City Municipal Airport (46 nm N)
KGCN - Grand Canyon National Park Airport (48 nm E)
KSGU - St George Regional Airport (55 nm N)
KKNB - Kanab Municipal Airport (56 nm NE)
40G - Valle Airport (56 nm SE)
 
Loc | Ops | Rwys | IFR | FBO | Links
Com | Nav | Svcs | Stats | Notes


 
Area around AZ15 (Lava Falls Heliport)
 
Road maps at: MapQuest Bing Google
 
Aerial photo
No photo
 
Sectional chart

 
Airport distance calculator
Flying to Lava Falls Heliport? Find the distance to fly.

From to AZ15

Sunrise and sunset
Times for 24-Nov-2017
 Local
(UTC-7)
 Zulu
(UTC)
Morning civil twilight06:5213:52
Sunrise07:1914:19
Sunset17:1900:19
Evening civil twilight17:4700:47

Current date and time
Zulu (UTC)  24-Nov-2017 11:07:26
Local (UTC-7)  24-Nov-2017 04:07:26
 
METAR
KAZC 
46nm N 
241055Z AUTO 16003KT 10SM CLR M01/M04 A3014 RMK AO2
KGCN 
48nm E 
241054Z AUTO 00000KT 10SM CLR M04/M11 A3020 RMK AO2 SLP181 T10391106
TAF
KGCN 
48nm E 
240524Z 2406/2506 VRB04KT P6SM SCT250 FM241800 26009KT P6SM FEW250 FM250100 VRB04KT P6SM FEW250
NOTAMs
Click for the latest NOTAMs
NOTAMs are issued by the DoD/FAA and will open in a separate window not controlled by AirNav.

 

 
 

Would you like to see your business listed on this page?

 If your business provides an interesting product or service to pilots, flight crews, aircraft, or users of the Lava Falls Heliport, you should consider listing it here.  To start the listing process, click on the button below
 
Add a business
 

Other Pages about Lava Falls Heliport

Update a link
 
Copyright © AirNav, LLC. All rights reserved. Privacy Policy  Contact